Regional Weather Roundup
Issued by NWS

Home | Current Version | Previous Version | Text Only | Print | Product List | Glossary On
Versions: 1 2 3 4 5 6 7 8 9 10 11 12 13 14 15 16 17 18 19 20 21 22 23 24 25 26 27 28 29 30 31 32 33 34 35 36 37 38 39 40 41 42 43 44 45 46 47 48 49 50
000
ASUS43 KDTX 162210
RWRMI
MICHIGAN HOURLY REGIONAL WEATHER ROUNDUP
NATIONAL WEATHER SERVICE DETROIT/PONTIAC MI
500 PM EST TUE JAN 16 2018

NOTE: "FAIR" INDICATES FEW OR NO CLOUDS BELOW 12,000 FEET WITH NO
SIGNIFICANT WEATHER AND/OR OBSTRUCTION TO VISIBILITY.

MIZ047>049-052>055-059>063-066>070-074>076-081>083-162300-
SOUTHEAST LOWER MICHIGAN

CITY           SKY/WX    TMP DP  RH WIND       PRES   REMARKS
ADRIAN         FAIR       7   0  73 SW7       30.43R WCI  -5
ALMA           CLOUDY    19  12  73 NW3       30.39S
ANN ARBOR      MOCLDY    11   6  81 SW8       30.39R WCI  -1
BAD AXE        CLOUDY    19  15  82 N12       30.35S WCI   7
CARO           LGT SNOW  19  17  93 NW7       30.37R WCI  10
DETROIT CITY   CLOUDY    14   9  80 SW10      30.39R WCI   1
DETROIT        FLURRIES  12   6  77 SW12      30.41R WCI  -2
FLINT          LGT SNOW  16  12  84 W9        30.38R VSB 1   WCI   4
GROSSE ILE     CLOUDY    10   4  77 W8        30.42R WCI  -2
HILLSDALE      LGT SNOW  10   3  72 W8        30.38R WCI  -1
HOWELL         LGT SNOW  13  10  88 W9        30.38R WCI   0

CITY           SKY/WX    TMP DP  RH WIND       PRES   REMARKS
JACKSON        CLOUDY    10   4  76 SW7       30.40R HAZE    WCI  -1
LAMBERTVILLE   LGT SNOW   7   0  73 SW7       30.44R WCI  -5
LANSING        LGT SNOW  14  11  87 W9        30.41R FOG     WCI   2
LAPEER         LGT SNOW  17  14  86 W7        30.36R WCI   8
MASON          LGT SNOW  13   6  74 W3        30.40R
MONROE         MOCLDY     7  -1  70 SW9       30.43R WCI  -6
PONTIAC        LGT SNOW  15  12  88 W8        30.35R FOG     WCI   4
PORT HOPE        N/A     21  15  78 N12G22    30.36R WCI   9
PORT HURON     LGT SNOW  18  12  79 CALM      30.37R
TRI CITIES     CLOUDY    20  12  71 CALM      30.39S
MIDLAND        CLOUDY    22  11  63 NW6       30.39R WCI  14
TROY           LGT SNOW  19  14  80 SW8       30.39R WCI   9
SAGINAW HB     CLOUDY    19  18  93 CALM      30.39R
$$
MIZ043>046-050>051-056>058-064>065-071>073-077>080-162300-
SOUTHWEST LOWER MICHIGAN

CITY           SKY/WX    TMP DP  RH WIND       PRES   REMARKS
BATTLE CREEK   CLOUDY    11   4  73 SW8       30.41R WCI  -1
BENTON HARBOR  MOCLDY    15   6  67 S6        30.45R WCI   6
BIG RAPIDS     CLOUDY    19   7  59 N6        30.38R WCI  11
COLDWATER      LGT SNOW   7   2  78 SW5       30.43R WCI  -1
FREMONT        MOCLDY    19   4  51 N6        30.41R WCI  11
HOLLAND        FAIR      17  12  80 W6        30.42R WCI   9
GRAND RAPIDS   FLURRIES  17  11  77 W9        30.40R WCI   6
IONIA          LGT SNOW  15  10  80 SW7       30.39R WCI   5
KALAMAZOO      CLOUDY    14   6  70 SW5       30.42R WCI   6
LUDINGTON      CLOUDY    20  10  65 N6        30.44R WCI  13
MARSHALL       FLURRIES   9   3  78 SW7       30.41R WCI  -2
MOUNT PLEASANT MOCLDY    22  10  59 NW5       30.38R WCI  16
MUSKEGON       MOCLDY    22   8  55 N10       30.43R WCI  11
SOUTH HAVEN    FLURRIES  17   8  69 S3        30.44R
$$
MIZ016>042-162300-
NORTHERN LOWER MICHIGAN

CITY           SKY/WX    TMP DP  RH WIND       PRES   REMARKS
ALPENA         LGT SNOW  15   9  76 N8        30.41R WCI   4
BEAVER ISLAND  CLOUDY    17   7  63 N5        30.43S WCI  10
BELLAIRE       FAIR      17   7  66 CALM      30.44R
CADILLAC       FLURRIES  17   8  69 N8        30.35R WCI   6
CHARLEVOIX     FAIR      16   7  66 NW6       30.46S WCI   8
FRANKFORT      CLOUDY    21  10  61 N3        30.45R
GAYLORD          N/A     12   6  77 W5        30.36R WCI   4
GRAYLING       FAIR      14   4  64 NW5       30.38R WCI   7
HARBOR SPRINGS FAIR      15   3  59 NW5       30.42S WCI   7
HOUGHTON LAKE  CLOUDY    17   7  64 N8        30.37R WCI   7
MANISTEE       FAIR      19   7  59 N8        30.45R WCI   9
OSCODA         MOCLDY    15   6  66 N6        30.39R WCI   6
PELLSTON       FAIR      11   3  70 NW9       30.42S WCI  -2
ROGERS CITY    LGT SNOW  15   9  79 W3        30.42R
TRAVERSE CITY  FAIR      19   8  62 N12       30.42R WCI   7
$$
MIZ007>008-015-162300-
EASTERN UPPER MICHIGAN

CITY           SKY/WX    TMP DP  RH WIND       PRES   REMARKS
KINROSS        FAIR      12   4  70 NW6       30.40S WCI   3
MACKINAC ISLAN FAIR      14   7  75 SW3       30.40S
NEWBERRY       FAIR      15   8  73 N5        30.40S WCI   7
S. S. MARIE    FAIR      15   3  59 NW7       30.39S WCI   5
MUNISING         N/A     20  14  77 NW7       30.42F WCI  11
$$
MIZ004>006-011>014-085-162300-
CENTRAL UPPER MICHIGAN

CITY           SKY/WX    TMP DP  RH WIND       PRES   REMARKS
MANISTIQUE     LGT SNOW  17  12  82 NW3       30.43S
ESCANABA       LGT SNOW  18  14  86 S7        30.45S FOG     WCI   8
MENOMINEE      LGT SNOW  17  12  80 S3        30.48R VSB 3/4
SAWYER-GWINN   PTCLDY    16  10  79 NW9       30.41R WCI   4
$$
MIZ001>003-009>011-084-162300-
WESTERN UPPER MICHIGAN

CITY           SKY/WX    TMP DP  RH WIND       PRES   REMARKS
IRON MOUNTAIN  CLOUDY    19  11  70 NW7       30.41S WCI  10
HOUGHTON       LGT SNOW  17  10  74 W7        30.40F WCI   8
COPPER HARBOR    N/A     18  11  74 CALM      30.43F
IRONWOOD       FAIR      16  10  77 SW5       30.46F WCI   9
$$

ABBREVIATIONS USED IN REMARKS
   TC - TEMPERATURE IN CELSIUS
  WCI - WIND CHILL INDEX
   HX - HEAT INDEX
  VSB - VISIBILITY




USA.gov is the U.S. government's official web portal to all federal, state and local government web resources and services.